TimeEST,TemperatureF,Dew PointF,Humidity,Sea Level PressureIn,VisibilityMPH,Wind Direction,Wind SpeedMPH,Gust SpeedMPH,PrecipitationIn,Events,Conditions,WindDirDegrees,DateUTC
12:15 AM,44.2,33.8,67,29.99,10.0,Calm,Calm,-,N/A,,Scattered Clouds,0,2013-02-16 05:15:00
12:35 AM,43.5,33.3,67,29.99,10.0,North,8.1,-,N/A,,Scattered Clouds,360,2013-02-16 05:35:00
12:55 AM,43.0,32.5,67,29.99,10.0,NNW,5.8,-,N/A,,Scattered Clouds,340,2013-02-16 05:55:00
1:15 AM,42.4,32.4,68,29.99,10.0,North,4.6,-,N/A,,Mostly Cloudy,350,2013-02-16 06:15:00
1:35 AM,41.7,32.2,69,29.99,10.0,NNW,4.6,-,N/A,,Scattered Clouds,340,2013-02-16 06:35:00
1:55 AM,41.7,32.0,68,29.99,10.0,North,5.8,-,N/A,,Scattered Clouds,10,2013-02-16 06:55:00
2:15 AM,41.2,32.0,70,29.99,10.0,North,5.8,-,N/A,,Mostly Cloudy,350,2013-02-16 07:15:00
2:35 AM,41.2,31.8,69,30.00,10.0,North,4.6,-,N/A,,Overcast,350,2013-02-16 07:35:00
2:55 AM,41.0,31.8,70,29.99,10.0,NNE,3.5,-,N/A,,Overcast,20,2013-02-16 07:55:00
3:15 AM,40.3,31.3,70,29.99,10.0,North,3.5,-,N/A,,Mostly Cloudy,360,2013-02-16 08:15:00
3:35 AM,40.1,31.3,71,29.98,10.0,Calm,Calm,-,N/A,,Overcast,0,2013-02-16 08:35:00
3:55 AM,39.4,31.5,73,29.98,10.0,Calm,Calm,-,N/A,,Overcast,0,2013-02-16 08:55:00
4:15 AM,40.1,31.3,71,29.97,10.0,Calm,Calm,-,N/A,,Overcast,0,2013-02-16 09:15:00
4:35 AM,40.1,30.9,70,29.97,10.0,NNE,6.9,-,N/A,,Overcast,20,2013-02-16 09:35:00
4:55 AM,40.1,30.7,69,29.97,10.0,North,6.9,-,N/A,,Overcast,10,2013-02-16 09:55:00
5:15 AM,40.1,30.2,68,29.96,10.0,NNE,4.6,-,N/A,,Overcast,20,2013-02-16 10:15:00
5:35 AM,40.1,29.7,66,29.97,10.0,North,5.8,-,N/A,,Overcast,350,2013-02-16 10:35:00
5:55 AM,39.9,29.8,67,29.98,10.0,NNW,3.5,-,N/A,,Overcast,340,2013-02-16 10:55:00
6:15 AM,39.7,30.6,70,29.98,10.0,Calm,Calm,-,N/A,,Light Drizzle,0,2013-02-16 11:15:00
6:35 AM,39.2,31.5,74,29.98,10.0,North,4.6,-,N/A,Rain,Light Rain,10,2013-02-16 11:35:00
6:55 AM,36.9,32.2,83,29.99,7.0,North,3.5,-,N/A,Rain,Light Rain,10,2013-02-16 11:55:00
7:15 AM,34.9,32.4,91,29.97,4.0,North,5.8,-,0.02,Rain,Heavy Rain,10,2013-02-16 12:15:00
7:35 AM,33.8,32.9,96,29.99,5.0,Calm,Calm,-,0.03,Rain,Rain,0,2013-02-16 12:35:00
7:55 AM,34.2,33.6,98,29.99,7.0,Calm,Calm,-,0.03,Rain,Rain,0,2013-02-16 12:55:00
8:15 AM,33.4,32.9,98,29.99,2.5,North,3.5,-,0.01,Rain,Heavy Rain,10,2013-02-16 13:15:00
8:35 AM,32.4,32.2,99,29.99,0.8,Calm,Calm,-,0.03,Snow,Light Snow,0,2013-02-16 13:35:00
8:55 AM,32.0,32.0,100,29.99,0.8,Calm,Calm,-,0.05,,Overcast,0,2013-02-16 13:55:00
9:15 AM,32.2,32.2,100,29.97,1.0,Calm,Calm,-,N/A,Snow,Light Snow,0,2013-02-16 14:15:00
9:35 AM,32.4,32.4,100,29.96,1.5,Calm,Calm,-,N/A,Snow,Light Snow,0,2013-02-16 14:35:00
9:55 AM,32.9,32.9,100,29.97,1.2,NNW,3.5,-,N/A,Snow,Light Snow,340,2013-02-16 14:55:00
10:15 AM,33.1,33.1,100,29.96,3.0,Calm,Calm,-,N/A,Rain,Light Rain,0,2013-02-16 15:15:00
10:35 AM,33.6,33.6,100,29.96,2.5,Calm,Calm,-,0.01,Rain,Rain,0,2013-02-16 15:35:00
1:15 PM,34.0,33.3,97,29.90,3.0,North,6.9,-,0.01,Rain,Rain,350,2013-02-16 18:15:00
1:35 PM,33.4,32.9,98,29.90,1.8,NNW,4.6,-,0.01,Rain,Light Rain,330,2013-02-16 18:35:00
1:55 PM,32.4,32.0,99,29.90,1.0,North,4.6,-,0.02,,Overcast,350,2013-02-16 18:55:00
2:15 PM,32.5,32.5,100,29.89,1.2,Calm,Calm,-,0.01,,Overcast,0,2013-02-16 19:15:00
2:35 PM,32.4,32.4,100,29.88,1.0,Calm,Calm,-,0.02,Rain,Light Rain,0,2013-02-16 19:35:00
2:55 PM,32.4,32.4,100,29.87,1.8,NNE,3.5,-,0.02,,Overcast,20,2013-02-16 19:55:00
3:15 PM,32.9,32.9,100,29.87,4.0,North,5.8,-,0.01,,Overcast,360,2013-02-16 20:15:00
3:35 PM,33.1,32.9,99,29.86,10.0,North,6.9,-,0.01,Rain,Light Rain,360,2013-02-16 20:35:00
3:55 PM,33.4,32.0,94,29.87,10.0,Calm,Calm,-,0.01,Rain,Light Rain,0,2013-02-16 20:55:00
4:15 PM,33.3,31.8,94,29.86,10.0,Calm,Calm,-,N/A,Rain,Light Rain,0,2013-02-16 21:15:00
4:35 PM,34.2,32.0,92,29.86,10.0,North,4.6,-,N/A,,Mostly Cloudy,10,2013-02-16 21:35:00
4:55 PM,34.2,31.5,90,29.86,10.0,NNE,6.9,-,N/A,,Scattered Clouds,20,2013-02-16 21:55:00
5:15 PM,33.4,31.8,94,29.87,1.8,North,5.8,-,N/A,,Overcast,360,2013-02-16 22:15:00
5:35 PM,32.4,32.0,99,29.87,10.0,Calm,Calm,-,N/A,,Mostly Cloudy,0,2013-02-16 22:35:00
5:55 PM,32.4,31.6,97,29.87,10.0,Calm,Calm,-,N/A,,Scattered Clouds,0,2013-02-16 22:55:00
6:15 PM,32.2,31.5,97,29.88,10.0,Calm,Calm,-,N/A,,Mostly Cloudy,0,2013-02-16 23:15:00
6:35 PM,32.0,31.5,98,29.89,10.0,Calm,Calm,-,N/A,,Mostly Cloudy,0,2013-02-16 23:35:00
6:55 PM,32.0,31.6,99,29.89,10.0,Calm,Calm,-,N/A,,Overcast,0,2013-02-16 23:55:00
7:15 PM,32.0,31.6,99,29.89,10.0,Calm,Calm,-,N/A,,Overcast,0,2013-02-17 00:15:00
7:35 PM,32.0,31.5,98,29.89,10.0,Calm,Calm,-,N/A,,Overcast,0,2013-02-17 00:35:00
7:55 PM,32.0,31.8,99,29.90,10.0,Calm,Calm,-,N/A,,Overcast,0,2013-02-17 00:55:00
8:15 PM,32.0,30.6,94,29.91,10.0,NNW,4.6,-,N/A,,Mostly Cloudy,330,2013-02-17 01:15:00
8:35 PM,32.0,26.1,79,29.92,10.0,NNW,5.8,-,N/A,,Scattered Clouds,330,2013-02-17 01:35:00
8:55 PM,32.4,22.5,67,29.92,10.0,NNW,6.9,-,N/A,,Clear,340,2013-02-17 01:55:00
9:15 PM,32.5,19.8,59,29.94,10.0,NNW,8.1,-,N/A,,Mostly Cloudy,330,2013-02-17 02:15:00
9:35 PM,32.4,16.3,52,29.94,10.0,NW,10.4,18.4,N/A,,Scattered Clouds,320,2013-02-17 02:35:00
9:55 PM,32.0,14.5,49,29.95,10.0,NW,10.4,16.1,N/A,,Clear,320,2013-02-17 02:55:00
10:15 PM,32.0,14.5,49,29.96,10.0,NW,5.8,-,N/A,,Clear,320,2013-02-17 03:15:00
10:35 PM,31.5,14.7,50,29.96,10.0,NW,6.9,-,N/A,,Clear,310,2013-02-17 03:35:00
10:55 PM,31.5,14.5,50,29.96,10.0,NW,5.8,-,N/A,,Clear,320,2013-02-17 03:55:00
11:15 PM,31.1,14.7,51,29.97,10.0,NW,6.9,-,N/A,,Clear,320,2013-02-17 04:15:00
11:35 PM,30.9,14.9,52,29.97,10.0,NW,4.6,-,N/A,,Clear,320,2013-02-17 04:35:00
11:55 PM,30.2,15.3,54,29.98,10.0,Calm,Calm,-,N/A,,Clear,0,2013-02-17 04:55:00